Regional Weather Roundup
Issued by NWS

Home | Current Version | Previous Version | Text Only | Print | Product List | Glossary Off
Versions: 1 2 3 4 5 6 7 8 9 10 11 12 13 14 15 16 17 18 19 20 21 22 23 24 25 26 27 28 29 30 31 32 33 34 35 36 37 38 39 40 41 42 43 44 45 46 47 48 49 50

000
ASUS45 KBOU 251407
RWRCO

WEATHER ROUNDUP FOR COLORADO
NATIONAL WEATHER SERVICE DENVER/BOULDER CO
700 AM MST TUE NOV 25 2014

NOTE: "FAIR" INDICATES FEW OR NO CLOUDS BELOW 12000 FEET WITH NO
SIGNIFICANT WEATHER AND/OR OBSTRUCTIONS TO VISIBILITY.

COZ001>005-013-030-031-251500-
...NORTHWEST COLORADO...

CITY           SKY/WX    TMP DP  RH WIND       PRES   REMARKS
CRAIG          FLURRIES  18  12  77 CALM      30.26S
HAYDEN         CLOUDY    16  12  86 E8        30.24F VSB 1   WCI   5
MEEKER         CLOUDY    19  14  81 E5        30.28F WCI  12
MOUNT WERNER   NOT AVBL
STEAMBOAT SPGS CLOUDY    14  11  90 CALM      30.24S VSB 1
WALDEN         CLOUDY    19  10  68 S6        30.10S WCI  11
$$

COZ006>008-011-251500-
...WEST CENTRAL VALLEYS...

CITY           SKY/WX    TMP DP  RH WIND       PRES   REMARKS
GRAND JUNCTION CLOUDY    25  14  63 SE12      30.38S WCI  14
MONTROSE       CLOUDY    20  12  71 S3        30.40S
EAGLE          CLOUDY    12  10  92 CALM      30.34R
RIFLE          CLOUDY    16  13  88 CALM      30.38S
DELTA          CLOUDY    22  17  79 CALM      30.41S
NUCLA          CLOUDY    23  12  63 CALM      30.44R
$$

COZ017>023-064>068-251500-
...SOUTHWEST COLORADO...

CITY           SKY/WX    TMP DP  RH WIND       PRES   REMARKS
DURANGO        PTCLDY    11   5  77 NE6       30.36S WCI   1
CORTEZ         CLOUDY    17  12  80 NE5       30.41S WCI  10
PAGOSA SPRINGS PTCLDY    10   4  77 CALM      30.33S
TELLURIDE      NOT AVBL
WOLF CREEK PAS PTCLDY     3  -6  66 MISG      30.20S
$$

COZ009-010-012-014-032>034-037-058>063-251500-
...CENTRAL COLORADO...

CITY           SKY/WX    TMP DP  RH WIND       PRES   REMARKS
ASPEN          CLOUDY    14   7  73 S3        30.28R
BUENA VISTA    MOCLDY    14   4  64 CALM      30.16R
COPPER MTN     CLOUDY     9   1  72 W25G40    30.09F WCI -13
BERTHOUD PASS  NOT AVBL
COTTONWOOD PAS MOCLDY    21   3  45 W17G30    30.08S WCI   7
GUNNISON       PTCLDY     0  -8  71 CALM      30.36S
KREMMLING      MOCLDY    21  10  63 W12G18    30.22F WCI   9
LEADVILLE      CLOUDY    11   2  67 N9        30.17S WCI  -2
MONARCH PASS   CLOUDY     1  -2  85 MISG      30.12S
SALIDA         MOCLDY    22   5  49 SW13G20   30.24S WCI   9
SUNLIGHT       CLOUDY   N/A N/A N/A CALM      30.20F
WILKERSON PASS NOT AVBL
$$

COZ069>075-251500-
...SAN LUIS VALLEY/SANGRE DE CRISTO MOUNTAINS...

CITY           SKY/WX    TMP DP  RH WIND       PRES   REMARKS
ALAMOSA        CLOUDY     8   0  69 S5        30.28F WCI   0
LA VETA PASS   CLOUDY    10   1  67 MISG      30.07R
SAGUACHE       NOT AVBL
$$

COZ035-036-038>040-251500-
...NORTHERN COLORADO FRONT RANGE...

CITY           SKY/WX    TMP DP  RH WIND       PRES   REMARKS
DENVER INTL AP CLOUDY    33   9  36 W20       30.00F WCI  21
DMNS CITY PARK   N/A     30   6  36 S5G12     30.01F WCI  25
AURORA         MOCLDY    28   8  44 SW9       30.03F WCI  19
FRONT RANGE AP CLOUDY    32  12  43 SW15      30.02F WCI  22
ERIE MUNI ARPT CLOUDY    34   7  31 CALM      30.01F
BOULDER MUN AP CLOUDY    36   9  32 W12G17    29.98F
CENTENNIAL     CLOUDY    26  11  52 E5        30.03F WCI  20
BROOMFIELD     MOCLDY    36   7  30 W24G32    30.02F
FORT COLLINS   CLOUDY    19  16  86 NE5       29.99F WCI  13
LONGMONT       CLOUDY    28  16  61 NE5       30.00F WCI  22
$$

COZ041-046-047-076>085-087-088-251500-
...PIKES PEAK/PALMER DIVIDE AND SOUTHERN FOOTHILLS...

CITY           SKY/WX    TMP DP  RH WIND       PRES   REMARKS
COLO. SPRINGS  CLOUDY    22  11  62 NE3       30.08F
A. F. ACADEMY  CLOUDY    31   2  29 VRB5      30.05F WCI  27
ELLICOTT       NOT AVBL
FALCON         NOT AVBL
FORT CARSON    CLOUDY    20  11  67 VRB5      30.07F WCI  13
LIMON          CLOUDY    13   9  84 CALM      30.06F
MONUMENT HILL  CLOUDY    27   9  46 SW9       30.03F WCI  17
TRINIDAD       PTCLDY    19   8  62 SW14      30.14F WCI   6
$$

COZ042>045-048>051-090-091-251500-
...NORTHEAST COLORADO...

CITY           SKY/WX    TMP DP  RH WIND       PRES   REMARKS
GREELEY ARPT   CLOUDY    19  10  68 CALM      30.01F
AKRON          CLOUDY    27  11  51 SW15      30.01F WCI  15
BURLINGTON     CLEAR     24  15  68 SW15      30.10F WCI  11
WRAY           MOCLDY    19  14  80 SW9       30.07F WCI   8
STERLING       CLOUDY    25  19  80 SW7       30.02F WCI  17
HOLYOKE        MOCLDY    23  18  80 W8        30.04F WCI  14
FORT MORGAN    CLOUDY    21  13  71 W6        30.02F WCI  14
$$

COZ086-089-092>099-251500-
...SOUTHEAST COLORADO...

CITY           SKY/WX    TMP DP  RH WIND       PRES   REMARKS
PUEBLO         MOCLDY    18  14  84 CALM      30.13F
LA JUNTA       PTCLDY    25  15  66 SW12      30.15F WCI  14
LAMAR          CLEAR     15  12  88 SW6       30.17F WCI   6
SPRINGFIELD      N/A     20  16  84 SW9       30.19F WCI   9
$$



USA.gov is the U.S. government's official web portal to all federal, state and local government web resources and services.